This demonstration page uses our WeatherBlox Daily Observations layout. Learn more.

Left ArrowRight Arrow

36.17497, -115.13722

Hourly Observations for January 9, 2017

Temp ( °F °C ) Dew Point ( °F °C ) Humidity (%) Winds ( mph kmh ) Pressure ( in mb ) Visibility ( mi km ) Precip ( " mm )
12:53 am 00:53 Clear 46 7.8 33 0.6 61 61 WNW 5 7 30.14 1021 10 16.0934 0 0
1:53 am 01:53 Clear 47 8.3 34 1.1 61 61 Calm 30.14 1021 10 16.0934 0 0
2:53 am 02:53 Partly Cloudy 46 7.8 34 1.1 63 63 SE 7 11 30.11 1020 10 16.0934 0 0
3:53 am 03:53 Partly Cloudy 46 7.8 34 1.1 63 63 Calm 30.09 1019 10 16.0934 0 0
4:53 am 04:53 Mostly Cloudy 47 8.3 34 1.1 61 61 S 7 11 30.07 1018 10 16.0934 0 0
5:53 am 05:53 Partly Cloudy 47 8.3 33 0.6 59 59 S 8 13 30.07 1018 10 16.0934 0 0
6:53 am 06:53 Cloudy 50 10 36 2.2 59 59 E 7 11 30.06 1018 10 16.0934 0 0
7:53 am 07:53 Partly Cloudy 55 12.8 45 7.2 69 69 S 16 26 30.01 1016 10 16.0934 0 0
8:53 am 08:53 Mostly Cloudy 55 12.8 46 7.8 72 72 ENE 8 13 30.02 1017 10 16.0934 0 0
9:29 am 09:29 Mostly Cloudy 59 15 45 7.2 60 60 WSW 18 30 29.97 1015 10 16.0934 0 0
9:53 am 09:53 Cloudy 59 15 45 7.2 60 60 SSE 15 24 30.03 1017 10 16.0934 0 0
10:53 am 10:53 Partly Cloudy 63 17.2 43 6.1 48 48 E 12 19 29.98 1015 10 16.0934 0 0
11:53 am 11:53 Sunny 65 18.3 38 3.3 37 37 W 23 37 29.96 1015 10 16.0934 0 0
12:53 pm 12:53 Sunny 66 18.9 34 1.1 30 30 WSW 23 37 29.9 1013 10 16.0934 0 0
1:53 pm 13:53 Sunny 65 18.3 36 2.2 34 34 W 20 31 29.97 1015 10 16.0934 0 0
2:53 pm 14:53 Sunny 65 18.3 35 1.7 33 33 SW 21 33 29.98 1015 10 16.0934 0 0
3:53 pm 15:53 Sunny 63 17.2 36 2.2 37 37 WSW 23 37 29.94 1014 10 16.0934 0 0
4:53 pm 16:53 Clear 61 16.1 33 0.6 35 35 SW 17 28 29.97 1015 10 16.0934 0 0
5:53 pm 17:53 Clear 60 15.6 32 0 35 35 WSW 13 20 29.98 1015 10 16.0934 0 0
6:53 pm 18:53 Clear 59 15 28 -2.2 31 31 WSW 14 22 29.99 1016 10 16.0934 0 0
7:53 pm 19:53 Clear 58 14.4 30 -1.1 35 35 SW 15 24 30 1016 10 16.0934 0 0
8:53 pm 20:53 Clear 57 13.9 27 -2.8 32 32 SW 16 26 30 1016 10 16.0934 0 0
9:53 pm 21:53 Clear 58 14.4 20 -6.7 23 23 SW 14 22 29.99 1016 10 16.0934 0 0
10:53 pm 22:53 Clear 57 13.9 21 -6.1 25 25 SSW 10 17 29.98 1015 10 16.0934 0 0
11:53 pm 23:53 Clear 55 12.8 27 -2.8 34 34 ESE 8 13 29.98 1015 10 16.0934 0 0

Powered by AerisWeather